EN

Hourly Weather Almaguer

Today, 19 January, Tuesday

Time Temperature Precipitation Wind Pressure Humidity
00:00 +13°C° 0.1 mm 1 mps 592 mmHg 95%
01:00 +13°C° 0.1 mm 1 mps 591 mmHg 95%
02:00 +13°C° 0 mm 1 mps 591 mmHg 94%
03:00 +13°C° 0 mm 1 mps 591 mmHg 94%
04:00 +13°C° 0 mm 1 mps 590 mmHg 94%
05:00 +13°C° 0 mm 1 mps 591 mmHg 93%
06:00 +13°C° 0 mm 1 mps 591 mmHg 93%
07:00 +13°C° 0 mm 1 mps 592 mmHg 92%
08:00 +15°C° 0 mm 1 mps 593 mmHg 84%
09:00 +19°C° 0 mm 1 mps 594 mmHg 76%
10:00 +21°C° 0 mm 1 mps 595 mmHg 68%
11:00 +22°C° 0.1 mm 1 mps 595 mmHg 66%
12:00 +22°C° 0.1 mm 1 mps 594 mmHg 65%
13:00 +23°C° 0.1 mm 1 mps 594 mmHg 63%
14:00 +22°C° 0.7 mm 1 mps 593 mmHg 69%
15:00 +21°C° 0.7 mm 1 mps 593 mmHg 74%
16:00 +21°C° 0.7 mm 1 mps 592 mmHg 80%
17:00 +19°C° 0.9 mm 1 mps 592 mmHg 85%
18:00 +18°C° 0.9 mm 1 mps 592 mmHg 90%
19:00 +15°C° 0.9 mm 1 mps 592 mmHg 95%
20:00 +15°C° 0.3 mm 1 mps 592 mmHg 94%
21:00 +14°C° 0.3 mm 1 mps 592 mmHg 94%
22:00 +14°C° 0.3 mm 1 mps 592 mmHg 93%
23:00 +13°C° 0 mm 1 mps 592 mmHg 93%

Tomorrow, 20 January, Wednesday

Time Temperature Precipitation Wind Pressure Humidity
00:00 +13°C° 0 mm 1 mps 592 mmHg 93%
01:00 +13°C° 0 mm 1 mps 592 mmHg 93%
02:00 +13°C° 0 mm 1 mps 591 mmHg 93%
03:00 +13°C° 0 mm 1 mps 591 mmHg 93%
04:00 +12°C° 0 mm 1 mps 590 mmHg 93%
05:00 +13°C° 0 mm 1 mps 591 mmHg 91%
06:00 +13°C° 0 mm 1 mps 591 mmHg 90%
07:00 +13°C° 0 mm 1 mps 592 mmHg 89%
08:00 +15°C° 0.1 mm 1 mps 593 mmHg 83%
09:00 +18°C° 0.1 mm 1 mps 594 mmHg 77%
10:00 +20°C° 0.1 mm 1 mps 595 mmHg 71%
11:00 +21°C° 0.1 mm 1 mps 594 mmHg 66%
12:00 +22°C° 0.1 mm 1 mps 594 mmHg 61%
13:00 +23°C° 0.1 mm 1 mps 594 mmHg 56%
14:00 +23°C° 0.3 mm 1 mps 594 mmHg 61%
15:00 +22°C° 0.3 mm 1 mps 593 mmHg 66%
16:00 +22°C° 0.3 mm 1 mps 592 mmHg 70%
17:00 +20°C° 0.8 mm 1 mps 592 mmHg 78%
18:00 +18°C° 0.8 mm 1 mps 591 mmHg 87%
19:00 +15°C° 0.8 mm 1 mps 591 mmHg 95%
20:00 +15°C° 0.3 mm 1 mps 591 mmHg 95%
21:00 +14°C° 0.3 mm 1 mps 592 mmHg 94%
22:00 +14°C° 0.3 mm 1 mps 592 mmHg 94%
23:00 +14°C° 0 mm 1 mps 592 mmHg 94%

Day after tomorrow, 21 January, Thursday

Time Temperature Precipitation Wind Pressure Humidity
00:00 +13°C° 0 mm 1 mps 592 mmHg 94%
01:00 +13°C° 0 mm 1 mps 591 mmHg 94%
02:00 +13°C° 0 mm 1 mps 591 mmHg 94%
03:00 +13°C° 0 mm 1 mps 591 mmHg 94%
04:00 +13°C° 0 mm 1 mps 591 mmHg 93%
05:00 +13°C° 0 mm 1 mps 591 mmHg 92%
06:00 +13°C° 0 mm 1 mps 591 mmHg 91%
07:00 +13°C° 0 mm 1 mps 592 mmHg 90%
08:00 +15°C° 0 mm 1 mps 593 mmHg 84%
09:00 +18°C° 0 mm 1 mps 594 mmHg 77%
10:00 +21°C° 0 mm 1 mps 595 mmHg 71%
11:00 +21°C° 0.5 mm 1 mps 594 mmHg 72%
12:00 +21°C° 0.5 mm 1 mps 594 mmHg 72%
13:00 +22°C° 0.5 mm 1 mps 594 mmHg 73%
14:00 +21°C° 1.5 mm 1 mps 593 mmHg 77%
15:00 +20°C° 1.5 mm 1 mps 592 mmHg 81%
16:00 +18°C° 1.5 mm 0 mps 592 mmHg 85%
17:00 +16°C° 1.5 mm 0 mps 591 mmHg 89%
18:00 +15°C° 1.5 mm 0 mps 591 mmHg 93%
19:00 +14°C° 1.5 mm 0 mps 591 mmHg 96%
20:00 +14°C° 0.4 mm 0 mps 591 mmHg 96%
21:00 +14°C° 0.4 mm 0 mps 592 mmHg 96%
22:00 +14°C° 0.4 mm 0 mps 592 mmHg 95%
23:00 +14°C° 0.4 mm 0 mps 592 mmHg 95%

22 January, Friday

Time Temperature Precipitation Wind Pressure Humidity
00:00 +14°C° 0.4 mm 0 mps 592 mmHg 95%
01:00 +13°C° 0.4 mm 0 mps 592 mmHg 95%
02:00 +13°C° 0.5 mm 0 mps 591 mmHg 96%
03:00 +13°C° 0.5 mm 0 mps 591 mmHg 96%
04:00 +13°C° 0.5 mm 0 mps 591 mmHg 96%
05:00 +13°C° 0.2 mm 0 mps 591 mmHg 96%
06:00 +13°C° 0.2 mm 0 mps 592 mmHg 96%
07:00 +13°C° 0.2 mm 0 mps 592 mmHg 96%
08:00 +14°C° 0.3 mm 0 mps 593 mmHg 94%
09:00 +16°C° 0.3 mm 1 mps 593 mmHg 92%
10:00 +18°C° 0.3 mm 1 mps 594 mmHg 90%
11:00 +19°C° 0.9 mm 1 mps 594 mmHg 87%
12:00 +20°C° 0.9 mm 1 mps 594 mmHg 84%
13:00 +20°C° 0.9 mm 1 mps 594 mmHg 82%
14:00 +20°C° 1.7 mm 1 mps 593 mmHg 85%
15:00 +19°C° 1.7 mm 1 mps 593 mmHg 87%
16:00 +19°C° 1.7 mm 1 mps 592 mmHg 90%
17:00 +18°C° 2.1 mm 1 mps 592 mmHg 93%
18:00 +15°C° 2.1 mm 0 mps 592 mmHg 95%
19:00 +14°C° 2.1 mm 0 mps 592 mmHg 98%
20:00 +14°C° 1.1 mm 0 mps 592 mmHg 98%
21:00 +14°C° 1.1 mm 0 mps 593 mmHg 98%
22:00 +13°C° 1.1 mm 0 mps 593 mmHg 98%
23:00 +13°C° 0.7 mm 0 mps 593 mmHg 98%

23 January, Saturday

Time Temperature Precipitation Wind Pressure Humidity
00:00 +13°C° 0.7 mm 0 mps 592 mmHg 98%
01:00 +13°C° 0.7 mm 0 mps 592 mmHg 99%
02:00 +13°C° 0.3 mm 0 mps 592 mmHg 98%
03:00 +13°C° 0.3 mm 0 mps 592 mmHg 98%
04:00 +12°C° 0.3 mm 0 mps 591 mmHg 98%
05:00 +12°C° 0.1 mm 0 mps 591 mmHg 97%
06:00 +12°C° 0.1 mm 0 mps 592 mmHg 97%
07:00 +12°C° 0.1 mm 0 mps 592 mmHg 96%
08:00 +15°C° 0.1 mm 1 mps 593 mmHg 91%
09:00 +18°C° 0.1 mm 1 mps 594 mmHg 86%
10:00 +20°C° 0.1 mm 1 mps 595 mmHg 81%
11:00 +20°C° 0.6 mm 1 mps 595 mmHg 80%
12:00 +20°C° 0.6 mm 1 mps 594 mmHg 79%
13:00 +21°C° 0.6 mm 1 mps 594 mmHg 79%
14:00 +20°C° 1.4 mm 1 mps 593 mmHg 83%
15:00 +19°C° 1.4 mm 1 mps 592 mmHg 88%
16:00 +16°C° 1.4 mm 0 mps 591 mmHg 92%
17:00 +15°C° 0.9 mm 0 mps 591 mmHg 93%
18:00 +15°C° 0.9 mm 0 mps 592 mmHg 95%
19:00 +14°C° 0.9 mm 0 mps 592 mmHg 96%
20:00 +14°C° 0.4 mm 0 mps 592 mmHg 96%
21:00 +14°C° 0.4 mm 0 mps 592 mmHg 95%
22:00 +13°C° 0.4 mm 0 mps 593 mmHg 95%
23:00 +13°C° 0.2 mm 0 mps 592 mmHg 95%

24 January, Sunday

Time Temperature Precipitation Wind Pressure Humidity
00:00 +13°C° 0.2 mm 0 mps 592 mmHg 95%
01:00 +13°C° 0.2 mm 0 mps 592 mmHg 95%
02:00 +13°C° 0.1 mm 0 mps 591 mmHg 96%
03:00 +13°C° 0.1 mm 0 mps 591 mmHg 96%
04:00 +12°C° 0.1 mm 0 mps 591 mmHg 96%
05:00 +13°C° 0.1 mm 0 mps 591 mmHg 96%
06:00 +14°C° 0.1 mm 1 mps 591 mmHg 95%
07:00 +14°C° 0.1 mm 1 mps 592 mmHg 95%
08:00 +15°C° 0.1 mm 1 mps 593 mmHg 91%
09:00 +18°C° 0.1 mm 1 mps 593 mmHg 87%
10:00 +20°C° 0.1 mm 1 mps 594 mmHg 82%
11:00 +20°C° 0.6 mm 1 mps 594 mmHg 82%
12:00 +20°C° 0.6 mm 1 mps 594 mmHg 81%
13:00 +20°C° 0.6 mm 1 mps 593 mmHg 80%
14:00 +20°C° 1.6 mm 1 mps 593 mmHg 83%
15:00 +20°C° 1.6 mm 1 mps 592 mmHg 85%
16:00 +19°C° 1.6 mm 1 mps 591 mmHg 88%
17:00 +18°C° 0.9 mm 1 mps 591 mmHg 90%
18:00 +16°C° 0.9 mm 1 mps 591 mmHg 93%
19:00 +15°C° 0.9 mm 1 mps 591 mmHg 95%
20:00 +15°C° 0.3 mm 1 mps 591 mmHg 94%
21:00 +14°C° 0.3 mm 1 mps 592 mmHg 94%
22:00 +14°C° 0.3 mm 1 mps 592 mmHg 93%
23:00 +14°C° 0.3 mm 1 mps 592 mmHg 93%
Show more